Погода Монакона неделю

Монако

13 - 19 июля
  • 13июля
    Сегодня
    +19°
    +29°
    Ясно и безоблачно
    ВремяПогодаТемператураВлажностьДавлениеВетер, м/сВероятность осадков
    02:00Практически безоблачно+22°C92 %753 мм0.9 м/с2 %
    05:00Практически безоблачно+20°C81 %752 мм1.7 м/с2 %
    08:00Ясно и безоблачно+23°C68 %753 мм1.0 м/с2 %
    11:00Ясно и безоблачно+27°C69 %753 мм2.0 м/с2 %
    14:00Ясно и безоблачно+28°C60 %753 мм2.2 м/с2 %
    17:00Ясно и безоблачно+28°C41 %752 мм1.5 м/с2 %
    20:00Ясно и безоблачно+26°C48 %751 мм2.0 м/с2 %
    23:00Облачно с прояснениями+23°C70 %753 мм2.7 м/с2 %
  • 14июля
    Воскресенье
    +20°
    +28°
    Небольшая облачность
    ВремяПогодаТемператураВлажностьДавлениеВетер, м/сВероятность осадков
    02:00Ясно и безоблачно+21°C60 %753 мм1.4 м/с2 %
    05:00Практически безоблачно+20°C54 %753 мм1.2 м/с2 %
    08:00Ясно и безоблачно+23°C53 %754 мм0.4 м/с2 %
    11:00Ясно и безоблачно+26°C58 %755 мм2.0 м/с2 %
    14:00Небольшая облачность+27°C66 %755 мм2.9 м/с2 %
    17:00Небольшая облачность+27°C63 %755 мм1.9 м/с4 %
    20:00Практически безоблачно+26°C65 %755 мм1.2 м/с1 %
    23:00Облачно с прояснениями+23°C83 %755 мм1.2 м/с2 %
  • 15июля
    Понедельник
    +21°
    +29°
    Ясно и безоблачно
    ВремяПогодаТемператураВлажностьДавлениеВетер, м/сВероятность осадков
    02:00Небольшая облачность+22°C86 %755 мм1.5 м/с2 %
    05:00Ясно и безоблачно+21°C81 %755 мм1.2 м/с2 %
    08:00Ясно и безоблачно+25°C69 %755 мм1.0 м/с2 %
    11:00Ясно и безоблачно+27°C72 %756 мм2.7 м/с2 %
    14:00Ясно и безоблачно+28°C64 %756 мм2.6 м/с3 %
    17:00Ясно и безоблачно+28°C61 %755 мм2.1 м/с5 %
    20:00Ясно и безоблачно+26°C72 %755 мм1.4 м/с2 %
    23:00Ясно и безоблачно+23°C88 %755 мм0.8 м/с2 %
  • 16июля
    Вторник
    +21°
    +29°
    Практически безоблачно
    ВремяПогодаТемператураВлажностьДавлениеВетер, м/сВероятность осадков
    02:00Ясно и безоблачно+22°C86 %755 мм0.7 м/с2 %
    05:00Ясно и безоблачно+21°C74 %754 мм0.9 м/с2 %
    08:00Ясно и безоблачно+25°C69 %755 мм1.6 м/с2 %
    11:00Ясно и безоблачно+28°C68 %755 мм2.2 м/с2 %
    14:00Практически безоблачно+28°C63 %755 мм2.5 м/с2 %
    17:00Небольшая облачность+28°C63 %755 мм1.6 м/с2 %
    20:00Ясно и безоблачно+26°C72 %754 мм2.1 м/с2 %
    23:00Ясно и безоблачно+24°C87 %755 мм2.1 м/с2 %
  • 17июля
    Среда
    +21°
    +29°
    Практически безоблачно
    ВремяПогодаТемператураВлажностьДавлениеВетер, м/сВероятность осадков
    02:00Ясно и безоблачно+24°C77 %755 мм1.2 м/с2 %
    05:00Ясно и безоблачно+22°C67 %755 мм1.4 м/с2 %
    08:00Небольшая облачность+24°C60 %756 мм0.7 м/с2 %
    11:00Облачно с прояснениями+28°C63 %757 мм2.7 м/с2 %
    14:00Практически безоблачно+28°C68 %757 мм3.1 м/с2 %
    17:00Ясно и безоблачно+28°C70 %756 мм2.1 м/с2 %
    20:00Ясно и безоблачно+27°C70 %756 мм0.9 м/с2 %
    23:00Ясно и безоблачно+25°C82 %756 мм0.3 м/с2 %
Мы используем cookies
Соглашаюсь